• In Germany
  • List of Countries
  • For 7 days
  • Water Temperature
  • Satellite Maps
  • Weather Map
  • Weather Widgets
  • user-avatar
    Login

    Hourly Weather Bogota

    Today, 25 September, Monday

    Time Temperature Precipitation Wind Pressure Humidity
    00:00 +11°C° 1.7 mm 1 mps 550 mmHg 90%
    01:00 +10°C° 0 mm 1 mps 550 mmHg 91%
    02:00 +10°C° 0.6 mm 1 mps 550 mmHg 91%
    03:00 +10°C° 0.6 mm 1 mps 549 mmHg 91%
    04:00 +10°C° 0.6 mm 1 mps 549 mmHg 91%
    05:00 +10°C° 0.1 mm 1 mps 549 mmHg 90%
    06:00 +11°C° 0.1 mm 1 mps 550 mmHg 88%
    07:00 +11°C° 0 mm 1 mps 550 mmHg 85%
    08:00 +12°C° 0 mm 2 mps 551 mmHg 79%
    09:00 +14°C° 0 mm 2 mps 551 mmHg 72%
    10:00 +15°C° 0 mm 2 mps 552 mmHg 65%
    11:00 +16°C° 0 mm 3 mps 552 mmHg 61%
    12:00 +17°C° 0 mm 3 mps 552 mmHg 57%
    13:00 +18°C° 0 mm 3 mps 552 mmHg 53%
    14:00 +18°C° 0.1 mm 3 mps 551 mmHg 54%
    15:00 +17°C° 0.1 mm 3 mps 551 mmHg 56%
    16:00 +17°C° 0.1 mm 2 mps 550 mmHg 57%
    17:00 +15°C° 0 mm 2 mps 549 mmHg 65%
    18:00 +13°C° 0 mm 2 mps 548 mmHg 72%
    19:00 +11°C° 0 mm 1 mps 548 mmHg 80%
    20:00 +11°C° 0 mm 1 mps 548 mmHg 79%
    21:00 +11°C° 0 mm 1 mps 548 mmHg 78%
    22:00 +10°C° 0 mm 1 mps 549 mmHg 77%
    23:00 +10°C° 0 mm 1 mps 548 mmHg 76%

    Tomorrow, 26 September, Tuesday

    Time Temperature Precipitation Wind Pressure Humidity
    00:00 +10°C° 0 mm 1 mps 548 mmHg 75%
    01:00 +10°C° 0 mm 1 mps 548 mmHg 74%
    02:00 +10°C° 0 mm 1 mps 548 mmHg 74%
    03:00 +10°C° 0 mm 1 mps 548 mmHg 74%
    04:00 +10°C° 0 mm 1 mps 548 mmHg 73%
    05:00 +10°C° 0 mm 1 mps 548 mmHg 72%
    06:00 +11°C° 0 mm 1 mps 549 mmHg 71%
    07:00 +12°C° 0 mm 1 mps 550 mmHg 69%
    08:00 +13°C° 0 mm 1 mps 551 mmHg 65%
    09:00 +15°C° 0 mm 1 mps 552 mmHg 60%
    10:00 +16°C° 0 mm 2 mps 553 mmHg 55%
    11:00 +17°C° 0 mm 2 mps 552 mmHg 53%
    12:00 +18°C° 0 mm 2 mps 552 mmHg 52%
    13:00 +18°C° 0 mm 2 mps 552 mmHg 50%
    14:00 +18°C° 0 mm 2 mps 551 mmHg 51%
    15:00 +17°C° 0 mm 2 mps 551 mmHg 53%
    16:00 +17°C° 0 mm 2 mps 550 mmHg 54%
    17:00 +15°C° 0 mm 1 mps 549 mmHg 63%
    18:00 +13°C° 0 mm 1 mps 549 mmHg 71%
    19:00 +11°C° 0 mm 1 mps 548 mmHg 80%
    20:00 +10°C° 0.1 mm 1 mps 548 mmHg 79%
    21:00 +10°C° 0.1 mm 1 mps 548 mmHg 79%
    22:00 +10°C° 0.1 mm 1 mps 549 mmHg 78%
    23:00 +9°C° 0 mm 1 mps 548 mmHg 75%

    Day after tomorrow, 27 September, Wednesday

    Time Temperature Precipitation Wind Pressure Humidity
    00:00 +9°C° 0 mm 1 mps 548 mmHg 73%
    01:00 +9°C° 0 mm 1 mps 547 mmHg 71%
    02:00 +9°C° 0 mm 1 mps 547 mmHg 68%
    03:00 +8°C° 0 mm 1 mps 547 mmHg 65%
    04:00 +8°C° 0 mm 1 mps 547 mmHg 63%
    05:00 +9°C° 0 mm 1 mps 548 mmHg 61%
    06:00 +10°C° 0 mm 1 mps 549 mmHg 59%
    07:00 +12°C° 0 mm 1 mps 550 mmHg 57%
    08:00 +13°C° 0 mm 1 mps 551 mmHg 54%
    09:00 +15°C° 0 mm 2 mps 552 mmHg 52%
    10:00 +17°C° 0 mm 2 mps 553 mmHg 49%
    11:00 +17°C° 0 mm 2 mps 552 mmHg 50%
    12:00 +18°C° 0 mm 2 mps 552 mmHg 51%
    13:00 +18°C° 0 mm 2 mps 551 mmHg 51%
    14:00 +18°C° 0.2 mm 2 mps 550 mmHg 56%
    15:00 +18°C° 0.2 mm 1 mps 550 mmHg 61%
    16:00 +16°C° 0.2 mm 1 mps 549 mmHg 65%
    17:00 +15°C° 0.3 mm 1 mps 549 mmHg 72%
    18:00 +13°C° 0.3 mm 1 mps 548 mmHg 79%
    19:00 +12°C° 0.3 mm 1 mps 548 mmHg 85%
    20:00 +12°C° 0.5 mm 1 mps 549 mmHg 86%
    21:00 +11°C° 0.5 mm 1 mps 549 mmHg 87%
    22:00 +11°C° 0.5 mm 1 mps 549 mmHg 88%
    23:00 +11°C° 0.2 mm 1 mps 549 mmHg 87%

    28 September, Thursday

    Time Temperature Precipitation Wind Pressure Humidity
    00:00 +11°C° 0.2 mm 1 mps 549 mmHg 86%
    01:00 +9°C° 0.2 mm 0 mps 548 mmHg 85%
    02:00 +9°C° 0 mm 0 mps 548 mmHg 84%
    03:00 +9°C° 0 mm 0 mps 548 mmHg 84%
    04:00 +9°C° 0 mm 0 mps 547 mmHg 83%
    05:00 +10°C° 0 mm 0 mps 548 mmHg 80%
    06:00 +10°C° 0 mm 0 mps 549 mmHg 77%
    07:00 +11°C° 0 mm 0 mps 550 mmHg 74%
    08:00 +14°C° 0 mm 1 mps 551 mmHg 67%
    09:00 +15°C° 0 mm 1 mps 552 mmHg 60%
    10:00 +17°C° 0 mm 2 mps 553 mmHg 52%
    11:00 +18°C° 0 mm 2 mps 552 mmHg 52%
    12:00 +18°C° 0 mm 2 mps 552 mmHg 52%
    13:00 +18°C° 0 mm 2 mps 551 mmHg 52%
    14:00 +18°C° 0.1 mm 2 mps 551 mmHg 56%
    15:00 +18°C° 0.1 mm 1 mps 550 mmHg 59%
    16:00 +18°C° 0.1 mm 1 mps 549 mmHg 63%
    17:00 +15°C° 0.5 mm 1 mps 549 mmHg 70%
    18:00 +14°C° 0.5 mm 1 mps 549 mmHg 77%
    19:00 +12°C° 0.5 mm 1 mps 549 mmHg 84%
    20:00 +12°C° 0.4 mm 1 mps 549 mmHg 85%
    21:00 +12°C° 0.4 mm 1 mps 549 mmHg 85%
    22:00 +12°C° 0.4 mm 1 mps 550 mmHg 85%
    23:00 +11°C° 0.2 mm 1 mps 549 mmHg 85%

    29 September, Friday

    Time Temperature Precipitation Wind Pressure Humidity
    00:00 +11°C° 0.2 mm 1 mps 549 mmHg 84%
    01:00 +10°C° 0.2 mm 0 mps 548 mmHg 84%
    02:00 +10°C° 0.1 mm 0 mps 548 mmHg 83%
    03:00 +10°C° 0.1 mm 0 mps 548 mmHg 82%
    04:00 +10°C° 0.1 mm 1 mps 548 mmHg 81%
    05:00 +11°C° 0 mm 1 mps 549 mmHg 79%
    06:00 +12°C° 0 mm 1 mps 550 mmHg 77%
    07:00 +11°C° 0 mm 0 mps 551 mmHg 75%
    08:00 +14°C° 0 mm 1 mps 551 mmHg 69%
    09:00 +15°C° 0 mm 1 mps 552 mmHg 63%
    10:00 +17°C° 0 mm 2 mps 553 mmHg 56%
    11:00 +17°C° 0.1 mm 2 mps 552 mmHg 57%
    12:00 +17°C° 0.1 mm 2 mps 551 mmHg 57%
    13:00 +17°C° 0.1 mm 2 mps 551 mmHg 58%
    14:00 +17°C° 0.2 mm 2 mps 550 mmHg 60%
    15:00 +17°C° 0.2 mm 2 mps 550 mmHg 62%
    16:00 +18°C° 0.2 mm 1 mps 549 mmHg 63%
    17:00 +15°C° 0.4 mm 1 mps 549 mmHg 70%
    18:00 +14°C° 0.4 mm 1 mps 549 mmHg 76%
    19:00 +12°C° 0.4 mm 1 mps 549 mmHg 83%
    20:00 +12°C° 0.3 mm 1 mps 549 mmHg 83%
    21:00 +11°C° 0.3 mm 1 mps 549 mmHg 84%
    22:00 +11°C° 0.3 mm 1 mps 549 mmHg 84%
    23:00 +11°C° 0.1 mm 1 mps 549 mmHg 83%

    30 September, Saturday

    Time Temperature Precipitation Wind Pressure Humidity
    00:00 +10°C° 0.1 mm 1 mps 548 mmHg 83%
    01:00 +10°C° 0.1 mm 1 mps 548 mmHg 82%
    02:00 +10°C° 0.1 mm 1 mps 548 mmHg 80%
    03:00 +10°C° 0.1 mm 1 mps 548 mmHg 79%
    04:00 +10°C° 0.1 mm 1 mps 548 mmHg 78%
    05:00 +11°C° 0.1 mm 1 mps 549 mmHg 76%
    06:00 +11°C° 0.1 mm 1 mps 549 mmHg 75%
    07:00 +12°C° 0.1 mm 1 mps 550 mmHg 73%
    08:00 +13°C° 0.1 mm 1 mps 551 mmHg 70%
    09:00 +14°C° 0.1 mm 1 mps 551 mmHg 67%
    10:00 +15°C° 0.1 mm 2 mps 552 mmHg 64%
    11:00 +15°C° 0.1 mm 2 mps 551 mmHg 63%
    12:00 +16°C° 0.1 mm 2 mps 551 mmHg 62%
    13:00 +16°C° 0.1 mm 2 mps 550 mmHg 61%
    14:00 +16°C° 0.3 mm 2 mps 550 mmHg 63%
    15:00 +16°C° 0.3 mm 2 mps 549 mmHg 65%
    16:00 +16°C° 0.3 mm 2 mps 549 mmHg 67%
    17:00 +14°C° 0.5 mm 1 mps 549 mmHg 73%
    18:00 +13°C° 0.5 mm 1 mps 549 mmHg 78%
    19:00 +12°C° 0.5 mm 1 mps 549 mmHg 83%
    20:00 +12°C° 0.3 mm 1 mps 549 mmHg 84%
    21:00 +12°C° 0.3 mm 1 mps 549 mmHg 85%
    22:00 +10°C° 0.3 mm 0 mps 549 mmHg 86%
    23:00 +10°C° 0.5 mm 0 mps 549 mmHg 86%
    Show more